Regional Weather Roundup
Issued by NWS

Home | Current Version | Previous Version | Text Only | Print | Product List | Glossary Off
Versions: 1 2 3 4 5 6 7 8 9 10 11 12 13 14 15 16 17 18 19 20 21 22 23 24 25 26 27 28 29 30 31 32 33 34 35 36 37 38 39 40 41 42 43 44 45 46 47 48 49 50

000
ASUS44 KMEG 101000
RWRTN
TENNESSEE HOURLY STATE WEATHER ROUNDUP
NATIONAL WEATHER SERVICE MEMPHIS TN
400 AM CST SUN DEC 10 2017

TNZ002-004-019-021-049-052-054-088>092-101100-
WEST TENNESSEE

CITY           SKY/WX    TMP DP  RH WIND       PRES   REMARKS
MEMPHIS INTL   CLEAR     27  23  85 CALM      30.29R
NWS MEMPHIS      N/A     24 N/A N/A MISG        N/A
JACKSON        CLEAR     20  18  92 S3        30.28R
DYERSBURG      CLEAR     22  19  89 CALM      30.28S
$$

TNZ008-025-027-028-033-062-065-066-101100-
NORTH MIDDLE TENNESSEE

CITY           SKY/WX    TMP DP  RH WIND       PRES   REMARKS
NASHVILLE      CLEAR     24  17  74 CALM      30.24F
CLARKSVILLE    CLEAR     21  16  81 CALM      30.24R
SMYRNA         CLEAR     24  18  77 CALM      30.25F
CROSSVILLE     CLEAR     20  14  77 CALM      30.15F
$$

TNZ061-075-076-078-094-096-097-101100-
SOUTH MIDDLE TENNESSEE

CITY           SKY/WX    TMP DP  RH WIND       PRES   REMARKS
$$

TNZ017-018-042-046-047-101100-
NORTHEAST TENNESSEE

CITY           SKY/WX    TMP DP  RH WIND       PRES   REMARKS
TRI CITIES     CLOUDY    29  19  66 W10       30.12S WCI  20
$$

TNZ012-013-036-069-073-074-101100-
CENTRAL EAST TENNESSEE

CITY           SKY/WX    TMP DP  RH WIND       PRES   REMARKS
KNOXVILLE      CLEAR     29  18  63 W3        30.19R
OAK RIDGE      PTCLDY    26  18  71 CALM      30.21S
$$

TNZ083-085-099-101100-
SOUTHEAST TENNESSEE

CITY           SKY/WX    TMP DP  RH WIND       PRES   REMARKS
CHATTANOOGA    CLEAR     29  19  66 W6        30.23R WCI  23
$$

SKY/WX REPORTED AS FAIR MEANS FEW OR NO CLOUDS BELOW
12 THOUSAND FEET.





USA.gov is the U.S. government's official web portal to all federal, state and local government web resources and services.